EW7448 Weather Reports


Display with metric or nautical units.
time (UTC)temp
F
wind
direction
speed
MPH
gust
MPH
rain 1hr
in
rain 24hr
in
rain mn
in
humidity
%
barometer
mb
20260506210014 88 215 0.0 7.0 0.00 0.00 0.00 55 1013.9
20260506204513 89 171 1.0 6.0 0.00 0.00 0.00 55 1013.9
20260506203009 89 300 1.0 5.0 0.00 0.00 0.00 52 1014.0
20260506201509 89 160 1.0 6.0 0.00 0.00 0.00 53 1013.9
20260506200008 89 134 2.0 8.0 0.00 0.00 0.00 50 1014.0
20260506194506 89 250 0.0 5.0 0.00 0.00 0.00 52 1014.1
20260506193006 89 198 1.0 9.0 0.00 0.00 0.00 49 1014.2
20260506191504 89 319 2.0 7.0 0.00 0.00 0.00 48 1014.2
20260506190004 90 120 1.0 6.0 0.00 0.00 0.00 45 1014.4
20260506184503 90 28 0.0 3.0 0.00 0.00 0.00 49 1014.6
20260506183001 89 160 0.0 6.0 0.00 0.00 0.00 51 1014.8
20260506181605 90 44 1.0 6.0 0.00 0.00 0.00 52 1014.9
20260506174559 89 143 0.0 4.0 0.00 0.00 0.00 53 1015.1
20260506173100 89 214 2.0 7.0 0.00 0.00 0.00 53 1015.1
20260506171604 90 65 0.0 3.0 0.00 0.00 0.00 52 1015.1
20260506170057 89 55 0.0 4.0 0.00 0.00 0.00 58 1015.2
20260506164559 88 108 1.0 7.0 0.00 0.00 0.00 58 1015.3
20260506163103 88 171 0.0 6.0 0.00 0.00 0.00 60 1015.3
20260506161600 88 158 1.0 5.0 0.00 0.00 0.00 61 1015.4
20260506160049 87 133 1.0 6.0 0.00 0.00 0.00 63 1015.6
20260506154608 87 145 0.0 3.0 0.00 0.00 0.00 66 1015.7
20260506153043 86 143 0.0 3.0 0.00 0.00 0.00 68 1015.7
20260506151542 85 124 0.0 3.0 0.00 0.00 0.00 68 1015.5
20260506150038 85 172 0.0 3.0 0.00 0.00 0.00 71 1015.5
20260506144541 84 144 0.0 2.0 0.00 0.00 0.00 72 1015.5
20260506143033 84 134 0.0 3.0 0.00 0.00 0.00 76 1015.5
20260506141529 83 153 1.0 4.0 0.00 0.00 0.00 78 1015.4
20260506140029 82 199 1.0 6.0 0.00 0.00 0.00 80 1015.3
20260506134523 81 151 0.0 4.0 0.00 0.00 0.00 84 1015.3
20260506133038 80 64 0.0 3.0 0.00 0.00 0.00 87 1015.1
20260506131520 78 182 0.0 2.0 0.00 0.00 0.00 90 1015.0
20260506130011 76 120 0.0 1.0 0.00 0.00 0.00 94 1015.0
20260506124507 74 117 0.0 1.0 0.00 0.00 0.00 97 1015.0
20260506123004 73 115 0.0 0.0 0.00 0.00 0.00 97 1014.9
20260506121600 71 115 0.0 0.0 0.00 0.00 0.00 98 1014.9
20260506120058 69 115 0.0 0.0 0.00 0.00 0.00 97 1014.7
20260506114602 68 115 0.0 0.0 0.00 0.00 0.00 97 1014.6
20260506113101 67 115 0.0 0.0 0.00 0.00 0.00 97 1014.6
20260506111605 66 115 0.0 0.0 0.00 0.00 0.00 97 1014.6
20260506110054 66 115 0.0 0.0 0.00 0.00 0.00 97 1014.4
20260506104558 66 115 0.0 0.0 0.00 0.00 0.00 97 1014.3
20260506103059 65 115 0.0 0.0 0.00 0.00 0.00 96 1014.0
20260506101552 65 115 0.0 0.0 0.00 0.00 0.00 96 1013.8
20260506100054 66 115 0.0 0.0 0.00 0.00 0.00 96 1013.9
20260506094550 66 115 0.0 0.0 0.00 0.00 0.00 96 1013.8
20260506093048 66 115 0.0 0.0 0.00 0.00 0.00 96 1013.7
20260506091550 66 115 0.0 0.0 0.00 0.00 0.00 96 1013.6
20260506090047 66 115 0.0 0.0 0.00 0.00 0.00 96 1013.4
20260506084546 66 115 0.0 0.0 0.00 0.00 0.00 96 1013.4
20260506083049 66 115 0.0 0.0 0.00 0.00 0.00 96 1013.5
20260506081542 66 115 0.0 0.0 0.00 0.00 0.00 95 1013.6
20260506073040 67 115 0.0 0.0 0.00 0.00 0.00 94 1013.6
20260506071538 67 115 0.0 0.0 0.00 0.00 0.00 95 1013.9
20260506061532 69 115 0.0 0.0 0.00 0.00 0.00 94 1014.1
20260506044519 71 115 0.0 0.0 0.00 0.00 0.00 88 1014.3
20260506043016 71 115 0.0 0.0 0.00 0.00 0.00 87 1014.4
20260506041513 72 115 0.0 1.0 0.00 0.00 0.00 87 1014.5
20260506040016 72 115 0.0 0.0 0.00 0.00 0.00 86 1014.6
20260506034510 72 115 0.0 0.0 0.00 0.00 0.00 84 1014.7
20260506033008 73 115 0.0 1.0 0.00 0.00 0.00 83 1014.8
20260506031507 73 115 0.0 1.0 0.00 0.00 0.00 83 1014.8
20260506030007 73 115 0.0 1.0 0.00 0.00 0.00 83 1014.7
20260506024507 73 115 0.0 1.0 0.00 0.00 0.00 83 1014.5
20260506023006 73 104 0.0 1.0 0.00 0.00 0.00 83 1014.3
20260506021509 74 92 0.0 2.0 0.00 0.00 0.00 82 1014.4
20260506020004 74 60 0.0 2.0 0.00 0.00 0.00 82 1014.3
20260506014504 74 146 0.0 1.0 0.00 0.00 0.00 81 1014.2
20260506013003 74 169 0.0 0.0 0.00 0.00 0.00 79 1013.9
20260506011502 74 69 0.0 1.0 0.00 0.00 0.00 79 1013.8
20260506010002 74 41 0.0 1.0 0.00 0.00 0.00 79 1013.5
20260506004501 74 40 0.0 2.0 0.00 0.00 0.00 78 1013.4
20260506003001 74 39 0.0 2.0 0.00 0.00 0.00 79 1013.2
20260506001600 75 37 0.0 2.0 0.00 0.00 0.00 78 1013.2
20260505234610 76 62 0.0 5.0 0.00 0.00 0.00 75 1013.1
20260505233059 77 101 0.0 4.0 0.00 0.00 0.00 74 1013.1
20260505231558 77 30 1.0 7.0 0.00 0.00 0.00 73 1013.3
20260505224658 78 187 1.0 11.0 0.00 0.00 0.00 74 1013.6
20260505223056 78 120 2.0 9.0 0.00 0.00 0.00 73 1013.6
20260505221555 79 16 0.0 10.0 0.00 0.00 0.00 69 1013.4
20260505220054 80 173 1.0 7.0 0.00 0.00 0.00 69 1013.5
20260505214613 79 9 3.0 9.0 0.00 0.00 0.00 71 1013.2
20260505213102 80 68 3.0 9.0 0.00 0.00 0.00 69 1013.2
20260505211552 80 56 4.0 13.0 0.00 0.00 0.00 66 1013.3